Weather History for KMRF - March, 2012

Change the Weather History Date:

Friday, March 16, 2012

  Actual Average Record
Temperature  
Mean Temperature 62 °F -  
Max Temperature 82 °F 65 °F 82 °F (2011)
Min Temperature 42 °F 34 °F 24 °F (2005)
Degree Days  
Heating Degree Days 3    
Growing Degree Days 12 (Base 50)    
Moisture  
Dew Point 36 °F    
Average Humidity 42    
Maximum Humidity 76    
Minimum Humidity 15    
Precipitation  
Precipitation 0.00 in - - ()
Sea Level Pressure  
Sea Level Pressure 30.09 in    
Wind  
Wind Speed 6 mph (SW)    
Max Wind Speed 25 mph    
Max Gust Speed 34 mph    
Visibility 10 miles    
Events Thunderstorm    
Averages and records for this station are not official NWS values.
T = Trace of Precipitation, MM = Missing Value Source: NWS Daily Summary

Daily Weather History Graph

Daily Weather History Graph

Search for Another Location

Airport or City:

Trip Planner

Search our weather history database for the weather conditions in past years. The results will help you decide how hot, cold, wet, or windy it might be!

Date:

Astronomy

Mar. 16, 2012 Rise Set
Actual Time 8:04 AM CDT 8:05 PM CDT
Civil Twilight 7:40 AM CDT 8:29 PM CDT
Nautical Twilight 7:12 AM CDT 8:57 PM CDT
Astronomical Twilight 6:44 AM CDT 9:25 PM CDT
Moon 4:02 AM CDT (3/16) 2:49 PM CDT (3/16)
Length of Visible Light 12h 49m
Length of Day
12h 01m
Waning Crescent, 32% of the Moon is Illuminated
Mar 16
Waning Crescent
Mar 22
New
Mar 30
First Quarter
Apr 6
Full
Apr 13
Last Quarter

Hourly Weather History & Observations

Time (CDT) Temp. Windchill Dew Point Humidity Pressure Visibility Wind Dir Wind Speed Gust Speed Precip Events Conditions
12:15 AM 53.6 °F - 17.6 °F 24% 30.16 in 10.0 mi North 6.9 mph - N/A   Clear
12:35 AM 53.6 °F - 15.8 °F 22% 30.16 in 10.0 mi North 4.6 mph - N/A   Clear
12:55 AM 53.6 °F - 17.6 °F 24% 30.16 in 10.0 mi SE 3.5 mph - N/A   Clear
1:15 AM 53.6 °F - 19.4 °F 26% 30.16 in 10.0 mi Calm Calm - N/A   Clear
1:35 AM 50.0 °F - 17.6 °F 28% 30.16 in 10.0 mi Calm Calm - N/A   Clear
1:55 AM 48.2 °F - 21.2 °F 34% 30.15 in 10.0 mi NNE 4.6 mph - N/A   Clear
2:15 AM 50.0 °F - 26.6 °F 40% 30.15 in 10.0 mi Calm Calm - N/A   Clear
2:35 AM 48.2 °F - 19.4 °F 32% 30.14 in 10.0 mi NW 5.8 mph - N/A   Clear
2:55 AM 46.4 °F - 19.4 °F 34% 30.14 in 10.0 mi Calm Calm - N/A   Clear
3:35 AM 46.4 °F 45.2 °F 23.0 °F 40% 30.14 in 10.0 mi North 3.5 mph - N/A   Clear
3:55 AM 46.4 °F 44.3 °F 17.6 °F 32% 30.13 in 10.0 mi NNW 4.6 mph - N/A   Clear
4:15 AM 46.4 °F 45.2 °F 19.4 °F 34% 30.12 in 10.0 mi North 3.5 mph - N/A   Clear
4:35 AM 46.4 °F - 23.0 °F 40% 30.11 in 10.0 mi Calm Calm - N/A   Clear
4:55 AM 44.6 °F - 21.2 °F 39% 30.11 in 10.0 mi Calm Calm - N/A   Clear
5:15 AM 42.8 °F 39.3 °F 21.2 °F 42% 30.11 in 10.0 mi NNW 5.8 mph - N/A   Clear
5:35 AM 44.6 °F 40.2 °F 24.8 °F 46% 30.10 in 10.0 mi NW 8.1 mph - N/A   Clear
5:55 AM 44.6 °F 40.2 °F 26.6 °F 49% 30.11 in 10.0 mi NW 8.1 mph - N/A   Clear
6:15 AM 46.4 °F 41.5 °F 32.0 °F 57% 30.10 in 10.0 mi NW 10.4 mph - N/A   Clear
6:35 AM 46.4 °F 41.9 °F 35.6 °F 66% 30.11 in 10.0 mi NNW 9.2 mph - N/A   Clear
6:55 AM 48.2 °F - 37.4 °F 66% 30.11 in 10.0 mi NNW 8.1 mph - N/A   Clear
7:15 AM 48.2 °F - 39.2 °F 71% 30.11 in 10.0 mi NNW 9.2 mph - N/A   Clear
7:35 AM 48.2 °F - 41.0 °F 76% 30.11 in 10.0 mi NNW 9.2 mph - N/A   Clear
7:55 AM 46.4 °F - 39.2 °F 76% 30.11 in 10.0 mi Calm Calm - N/A   Clear
8:15 AM 46.4 °F - 37.4 °F 71% 30.12 in 10.0 mi Calm Calm - N/A   Clear
8:35 AM 46.4 °F - 37.4 °F 71% 30.13 in 10.0 mi Calm Calm - N/A   Clear
8:55 AM 50.0 °F - 39.2 °F 66% 30.14 in 10.0 mi Calm Calm - N/A   Clear
9:15 AM 53.6 °F - 42.8 °F 67% 30.14 in 10.0 mi Calm Calm - N/A   Clear
9:35 AM 57.2 °F - 44.6 °F 63% 30.15 in 10.0 mi Calm Calm - N/A   Clear
9:55 AM 60.8 °F - 46.4 °F 59% 30.15 in 10.0 mi SE 3.5 mph - N/A   Clear
10:35 AM 62.6 °F - 50.0 °F 63% 30.15 in 10.0 mi Calm Calm - N/A   Clear
10:55 AM 64.4 °F - 51.8 °F 64% 30.15 in 10.0 mi South 4.6 mph - N/A   Clear
11:15 AM 66.2 °F - 51.8 °F 60% 30.15 in 10.0 mi SW 5.8 mph - N/A   Clear
11:35 AM 69.8 °F - 51.8 °F 53% 30.15 in 10.0 mi SW 4.6 mph - N/A   Clear
11:55 AM 69.8 °F - 51.8 °F 53% 30.15 in 10.0 mi South 4.6 mph - N/A   Clear
12:15 PM 69.8 °F - 51.8 °F 53% 30.14 in 10.0 mi South 4.6 mph - N/A   Clear
12:35 PM 69.8 °F - 51.8 °F 53% 30.13 in 10.0 mi South 6.9 mph - N/A   Clear
12:55 PM 71.6 °F - 51.8 °F 50% 30.13 in 10.0 mi South 9.2 mph - N/A   Clear
1:15 PM 71.6 °F - 51.8 °F 50% 30.12 in 10.0 mi SSE 6.9 mph - N/A   Clear
1:35 PM 71.6 °F - 50.0 °F 46% 30.11 in 10.0 mi South 9.2 mph - N/A   Clear
1:55 PM 73.4 °F - 50.0 °F 44% 30.10 in 10.0 mi South 9.2 mph - N/A   Clear
2:15 PM 75.2 °F - 48.2 °F 38% 30.09 in 10.0 mi SW 9.2 mph - N/A   Clear
2:35 PM 78.8 °F - 44.6 °F 30% 30.07 in 10.0 mi SW 9.2 mph 20.7 mph N/A   Clear
2:55 PM 78.8 °F - 42.8 °F 28% 30.06 in 10.0 mi SW 13.8 mph 19.6 mph N/A   Clear
3:15 PM 78.8 °F - 33.8 °F 20% 30.04 in 10.0 mi WSW 18.4 mph 21.9 mph N/A   Clear
3:35 PM 78.8 °F - 32.0 °F 18% 30.03 in 10.0 mi SSW 16.1 mph 21.9 mph N/A   Clear
3:55 PM 78.8 °F - 35.6 °F 21% 30.02 in 10.0 mi WSW 13.8 mph 17.3 mph N/A   Partly Cloudy
4:15 PM 80.6 °F - 35.6 °F 20% 30.01 in 10.0 mi SW 18.4 mph 26.5 mph N/A   Mostly Cloudy
4:35 PM 82.4 °F - 33.8 °F 17% 30.00 in 10.0 mi SW 16.1 mph 34.5 mph N/A   Scattered Clouds
4:55 PM 82.4 °F - 32.0 °F 16% 29.99 in 10.0 mi WSW 25.3 mph 31.1 mph N/A   Partly Cloudy
5:15 PM 82.4 °F - 30.2 °F 15% 29.99 in 10.0 mi WSW 20.7 mph 31.1 mph N/A   Partly Cloudy
5:35 PM 80.6 °F - 30.2 °F 16% 29.99 in 10.0 mi SSW 19.6 mph 27.6 mph N/A   Mostly Cloudy
5:55 PM 80.6 °F - 30.2 °F 16% 29.98 in 10.0 mi SSW 15.0 mph 24.2 mph N/A   Scattered Clouds
6:15 PM 80.6 °F - 30.2 °F 16% 29.98 in 10.0 mi SSW 15.0 mph - N/A   Partly Cloudy
6:35 PM 80.6 °F - 32.0 °F 17% 29.97 in 10.0 mi SW 13.8 mph 23.0 mph N/A   Partly Cloudy
6:55 PM 80.6 °F - 33.8 °F 18% 29.98 in 10.0 mi SSW 15.0 mph 21.9 mph N/A   Scattered Clouds
7:15 PM 73.4 °F - 33.8 °F 23% 29.98 in 10.0 mi Calm Calm - N/A   Scattered Clouds
7:35 PM 75.2 °F - 35.6 °F 24% 29.99 in 10.0 mi SSE 6.9 mph - N/A Thunderstorm Thunderstorm
7:55 PM 75.2 °F - 44.6 °F 34% 29.99 in 10.0 mi South 11.5 mph - N/A Thunderstorm Mostly Cloudy
8:15 PM 71.6 °F - 44.6 °F 38% 29.99 in 10.0 mi SSE 12.7 mph 18.4 mph N/A   Scattered Clouds
8:35 PM 71.6 °F - 46.4 °F 41% 29.99 in 10.0 mi SE 10.4 mph - N/A   Clear
8:55 PM 69.8 °F - 50.0 °F 49% 30.00 in 10.0 mi SE 11.5 mph - N/A   Clear
9:15 PM 66.2 °F - 53.6 °F 64% 30.00 in 10.0 mi SE 17.3 mph 21.9 mph N/A   Clear
9:35 PM 66.2 °F - 53.6 °F 64% 30.00 in 10.0 mi SE 12.7 mph - N/A   Clear
9:55 PM 64.4 °F - 53.6 °F 68% 30.01 in 10.0 mi SE 9.2 mph - N/A   Clear
10:15 PM 62.6 °F - 53.6 °F 72% 30.02 in 10.0 mi SE 6.9 mph - N/A   Clear
10:35 PM 62.6 °F - 53.6 °F 72% 30.04 in 10.0 mi Calm Calm - N/A   Clear
10:55 PM 60.8 °F - 53.6 °F 77% 30.05 in 10.0 mi Calm Calm - N/A   Clear
11:15 PM 60.8 °F - 53.6 °F 77% 30.04 in 10.0 mi SSE 4.6 mph - N/A   Clear
11:35 PM 59.0 °F - 53.6 °F 82% 30.05 in 10.0 mi SSW 5.8 mph - N/A   Clear
11:55 PM 59.0 °F - 51.8 °F 77% 30.05 in 10.0 mi SW 8.1 mph - N/A   Clear